Regional Weather Roundup
Issued by NWS

Home | Current Version | Previous Version | Graphics & Text | Print | Product List | Glossary On
Versions: 1 2 3 4 5 6 7 8 9 10 11 12 13 14 15 16 17 18 19 20 21 22 23 24 25 26 27 28 29 30 31 32 33 34 35 36 37 38 39 40 41 42 43 44 45 46 47 48 49 50
000
ASUS43 KMKX 281100
RWRWI

WISCONSIN REGIONAL WEATHER ROUNDUP
NATIONAL WEATHER SERVICE MILWAUKEE/SULLIVAN WI
600 AM CDT TUE JUL 28 2015

NOTE: "FAIR" INDICATES FEW OR NO CLOUDS BELOW 12,000 FEET WITH NO
SIGNIFICANT WEATHER AND/OR OBSTRUCTIONS TO VISIBILITY.

WIZ001-002-006>008-014>016-023>028-281200-
NORTHWEST WISCONSIN

CITY           SKY/WX    TMP DP  RH WIND       PRES   REMARKS
SUPERIOR ARPT  MOCLDY    67  65  95 CALM      29.84S
ASHLAND        PTCLDY    67  64  90 VRB3      29.89S
HAYWARD        MOCLDY    70  65  84 S8        29.90S
SIREN          CLOUDY    72  68  86 SE9       29.85S
CUMBERLAND     PTCLDY    68  64  88 SE7       29.87F
RICE LAKE      PTCLDY    69  65  87 SE8       29.90F
CHETEK         PTCLDY    69  67  92 E9        29.89F
LADYSMITH      PTCLDY    69  63  82 SE6       29.93F
EAU CLAIRE     NOT AVBL
MENOMONIE      PTCLDY    69  67  94 E8        29.88F FOG
NEW RICHMOND   CLOUDY    72  69  93 SE10G16   29.85S
OSCEOLA        CLOUDY    73  73 100 SE12      29.85S
$$

WIZ003>005-009-010-017-018-281200-
NORTH CENTRAL WISCONSIN

CITY           SKY/WX    TMP DP  RH WIND       PRES   REMARKS
MANITOWISH WTR CLEAR     66  63  91 S7        29.97F
ARBOR VITAE    CLEAR     69  62  78 S7        29.98S
WOODRUFF       CLEAR     69  62  78 S7        29.98S
RHINELANDER    CLEAR     59  57  93 E6        29.99S
EAGLE RIVER    CLEAR     62  62  97 CALM      30.00R
LAND O LAKES     N/A     55  55  99 CALM      30.01R FOG
PHILLIPS       CLOUDY    68  61  79 SE6       29.95S
TOMAHAWK       CLEAR     62  60  93 CALM      29.98S
MEDFORD        CLEAR     64  61  90 SE6       29.96F
MERRILL        NOT AVBL
$$

WIZ029-030-035-036-043>047-281200-
CENTRAL WISCONSIN

CITY           SKY/WX    TMP DP  RH WIND       PRES   REMARKS
WAUSAU         CLEAR     66  61  84 S6        29.97R
MOSINEE        CLEAR     63  61  94 SE5       29.99S
MARSHFIELD     CLEAR     68  60  75 SE9       29.96S
STEVENS POINT  CLEAR     64  59  85 SE3       29.99R
WAUPACA        CLEAR     61  61  98 CALM      29.99S
WAUTOMA        NOT AVBL
WISC RAPIDS    CLEAR     67  60  78 SE7       29.98S
CAMP DOUGLAS   NOT AVBL
$$

WIZ011>013-019>022-031-037>040-048>050-281200-
NORTHEAST WISCONSIN

CITY           SKY/WX    TMP DP  RH WIND       PRES   REMARKS
ANTIGO         CLEAR     60  60  99 S5        30.01S
SHAWANO        CLEAR     66  61  83 CALM      29.99S
OCONTO         PTCLDY    58  58 100 CALM      29.99F
STURGEON BAY   CLEAR     66  57  72 S6        30.02S
GREEN BAY      CLEAR     60  59  96 CALM      29.99F FOG
MANITOWOC      FOG       61  61 100 MISG      29.99F VSB 1/2
APPLETON       CLEAR     68  61  77 VRB5      29.99F
CLINTONVILLE   PTCLDY    59  55  88 CALM      29.99S
OSHKOSH        CLEAR     64  60  87 S6        29.99F FOG
$$

WIZ032>034-041-042-053>061-281200-
SOUTHWEST WISCONSIN

CITY           SKY/WX    TMP DP  RH WIND       PRES   REMARKS
LA CROSSE      CLEAR     73  65  75 SE8       29.91R
SPARTA         CLEAR     68  60  76 CALM      29.94F
VIROQUA        CLEAR     67  64  89 SE7       29.96R
BOSCOBEL       CLEAR     68  63  84 CALM      29.95R
PRAIRIE DU CHI CLEAR     69  64  82 E6        29.92S
PLATTEVILLE    CLEAR     67  64  93 E7        29.95F
$$

WIZ056-057-062-063-064-067-068-281200-
SOUTH CENTRAL WISCONSIN

CITY           SKY/WX    TMP DP  RH WIND       PRES   REMARKS
REEDSBURG      CLEAR     66  62  86 CALM      29.97R
BARABOO/DELLS  CLEAR     67  61  80 SE6       29.97S
LONE ROCK      NOT AVBL
MINERAL POINT  CLEAR     68  63  83 SE9       29.97S
MADISON        PTCLDY    69  61  75 SE9       29.97F
MIDDLETON      CLEAR     68  62  83 SE3       29.98F
WATERTOWN      CLEAR     64  64 100 SE5       29.98F FOG
MONROE         CLEAR     64  63  94 SE8       29.98F
JANESVILLE     CLEAR     64  63  94 SE3       29.98F
$$

WIZ051-052-058>065-066-070>072-281200-
SOUTHEAST WISCONSIN

CITY           SKY/WX    TMP DP  RH WIND       PRES   REMARKS
MILWAUKEE      PTCLDY    67  62  84 CALM      30.00S
WAUKESHA       CLEAR     61  61 100 CALM      30.01F
MILWAUKEE/TIMM CLEAR     63  59  88 CALM      30.01F FOG
RACINE         CLEAR     64  61  90 CALM      30.02R
BURLINGTON     FOG       57  57  99 CALM      30.00F VSB<1/4
KENOSHA        FOG       60  60 100 NE3       30.00F VSB 1/2
FOND DU LAC    CLEAR     65  61  87 S5        29.99F
SHEBOYGAN      FOG       59  58  96 CALM      30.00S VSB 1/4
WEST BEND      FOG       57  55  94 CALM      30.00F VSB 1
JUNEAU           N/A     64  60  88 SE6       30.00F
$$

LSZ147-162-281200-
LAKE SUPERIOR

STATION/POSITION TIME  TEMP    WIND        PRES    WAVE
                       AIR SEA DIR/SP/G            HT/PER
                 (UTC) (F)     (DEG/KT/KT) (MB)    (FT/S)
W MID LAKE BUOY  0950   66 62  140/ 10/ 10 1012.5F   0
DEVILS ISLAND    1000   72     150/  7/ 10 1011.7F
PORT WING        1000   73     150/  4/ 10 1011.2F
SAXON HARBOR     1000   72                 1011.9
$$

LMZ867-665-643>646-281200-
LAKE MICHIGAN

STATION/POSITION TIME  TEMP    WIND        PRES    WAVE
                       AIR SEA DIR/SP/G            HT/PER
                 (UTC) (F)     (DEG/KT/KT) (MB)    (FT/S)
CHAMBERS ISLAND  1000   69      CALM  /  2 1015.9R
S GREEN BAY BUOY 1000   74 75  160/  8/ 12 1017.1R
N MID LAKE BUOY  0950   70 69  180/  4/  4 1015.8R   0
NORTHPORT PIER   1001   69     200/  4/  9 1015.9R
SISTER BAY       1014   69     170/  7/  9   N/A
ALGOMA LAKESHORE 1012             CALM       N/A
KEWAUNEE LAKESHO 1000   64        CALM     1015.4F
SHEBOYGAN LAKESH 1000   69     210/  3/  3 1015.8F
PORT WASHINGTON  1000   66     280/  3/  3 1016.6S
ATWATER BUOY     1000   72     160/  2/  4 1017.4R
MILWAUKEE LAKESH 1000   71      50/  1/  2   N/A
KENOSHA   LAKESH 1000   72     190/  4/  5 1015.6S
$$

TC  - TEMPERATURE IN CELSIUS
VSB - VISIBILITY IN STATUTE MILES
WCI - WIND CHILL INDEX
HX  - HEAT INDEX



USA.gov is the U.S. government's official web portal to all federal, state and local government web resources and services.